Fortuna, CA

3:09 PM PDT on April 22, 2018 (GMT -0700)
Rohnerville

Weather History for KFOT - July, 2013

Change the Weather History Date:

Friday, July 26, 2013

  Actual Average (KEKA) Record (KEKA)
Temperature  
Mean Temperature 55 °F -  
Max Temperature 62 °F 62 °F 70 °F (1947)
Min Temperature 48 °F 51 °F 46 °F (1919)
Degree Days  
Heating Degree Days 10    
Growing Degree Days 5 (Base 50)    
Moisture  
Dew Point 50 °F    
Average Humidity 95    
Maximum Humidity 100    
Minimum Humidity 72    
Precipitation  
Precipitation 0.00 in - - ()
Sea Level Pressure  
Sea Level Pressure 30.06 in    
Wind  
Wind Speed - (North)    
Max Wind Speed -    
Max Gust Speed -    
Visibility 5 miles    
Events      
Averages and records for this station are not official NWS values.
T = Trace of Precipitation, MM = Missing Value Source: NWS Daily Summary

Daily Weather History Graph

Daily Weather History Graph

Search for Another Location

Airport or City:

Astronomy

Jul. 26, 2013 Rise Set
Actual Time 6:08 AM PDT 8:37 PM PDT
Civil Twilight 5:37 AM PDT 9:08 PM PDT
Nautical Twilight 4:58 AM PDT 9:46 PM PDT
Astronomical Twilight 4:15 AM PDT 10:29 PM PDT
Moon 10:52 PM PDT (7/26) 10:52 AM PDT (7/26)
Length of Visible Light 15h 31m
Length of Day
14h 28m
Waning Gibbous, 79% of the Moon is Illuminated
Jul 26
Waning Gibbous
Jul 29
Last Quarter
Aug 6
New
Aug 14
First Quarter
Aug 20
Full

Hourly Weather History & Observations

Time (PDT) Temp. Dew Point Humidity Pressure Visibility Wind Dir Wind Speed Gust Speed Precip Events Conditions
12:15 AM 50.0 °F 50.0 °F 100% 30.03 in 6.0 mi North - - N/A   Overcast
12:35 AM 50.0 °F 50.0 °F 100% 30.03 in 8.0 mi North - - N/A   Mostly Cloudy
12:55 AM 50.0 °F 50.0 °F 100% 30.03 in 7.0 mi North - - N/A   Partly Cloudy
1:15 AM 50.0 °F 50.0 °F 100% 30.03 in 7.0 mi North - - N/A   Scattered Clouds
1:35 AM 50.0 °F 50.0 °F 100% 30.03 in 7.0 mi North - - N/A   Mostly Cloudy
1:55 AM 50.0 °F 48.2 °F 94% 30.03 in 8.0 mi North - - N/A   Overcast
2:15 AM 50.0 °F 50.0 °F 100% 30.03 in 9.0 mi North - - N/A   Overcast
2:35 AM 50.0 °F 50.0 °F 100% 30.03 in 9.0 mi North - - N/A   Overcast
2:55 AM 50.0 °F 50.0 °F 100% 30.03 in 8.0 mi North - - N/A   Overcast
3:15 AM 50.0 °F 48.2 °F 94% 30.03 in 8.0 mi North - - N/A   Overcast
3:35 AM 50.0 °F 48.2 °F 94% 30.02 in 8.0 mi North - - N/A   Overcast
3:55 AM 50.0 °F 50.0 °F 100% 30.03 in 7.0 mi North - - N/A   Overcast
4:15 AM 50.0 °F 48.2 °F 94% 30.02 in 7.0 mi North - - N/A   Overcast
4:35 AM 50.0 °F 50.0 °F 100% 30.02 in 8.0 mi North - - N/A   Overcast
4:55 AM 50.0 °F 48.2 °F 94% 30.02 in 8.0 mi North - - N/A   Overcast
5:15 AM 50.0 °F 48.2 °F 94% 30.02 in 7.0 mi North - - N/A   Overcast
5:35 AM 50.0 °F 48.2 °F 94% 30.03 in 7.0 mi North - - N/A   Overcast
5:55 AM 48.2 °F 48.2 °F 100% 30.04 in 8.0 mi North - - N/A   Overcast
6:15 AM 48.2 °F 48.2 °F 100% 30.05 in 5.0 mi North - - N/A   Overcast
6:35 AM 50.0 °F 50.0 °F 100% 30.05 in 3.0 mi North - - N/A   Overcast
6:55 AM 50.0 °F 50.0 °F 100% 30.05 in 0.2 mi North - - N/A   Overcast
7:15 AM 50.0 °F 50.0 °F 100% 30.06 in 0.2 mi North - - N/A   Overcast
7:35 AM 50.0 °F 50.0 °F 100% 30.06 in 0.2 mi North - - N/A   Overcast
7:55 AM 50.0 °F 50.0 °F 100% 30.07 in 1.0 mi North - - N/A   Overcast
8:15 AM 51.8 °F 51.8 °F 100% 30.08 in 2.5 mi North - - N/A   Overcast
8:35 AM 51.8 °F 51.8 °F 100% 30.08 in 5.0 mi North - - N/A   Overcast
8:55 AM 53.6 °F 51.8 °F 94% 30.09 in 5.0 mi North - - N/A   Overcast
9:15 AM 55.4 °F 51.8 °F 88% 30.09 in 7.0 mi North - - N/A   Mostly Cloudy
9:35 AM 57.2 °F 53.6 °F 88% 30.09 in 8.0 mi North - - N/A   Mostly Cloudy
9:55 AM 57.2 °F 53.6 °F 88% 30.09 in 9.0 mi North - - N/A   Partly Cloudy
10:15 AM 57.2 °F 53.6 °F 88% 30.09 in 9.0 mi North - - N/A   Clear
10:35 AM 59.0 °F 53.6 °F 82% 30.09 in 10.0 mi North - - N/A   Clear
10:55 AM 60.8 °F 53.6 °F 77% 30.09 in 10.0 mi North - - N/A   Clear
11:00 AM 62.6 °F 53.6 °F 72% 30.09 in 10.0 mi North - - N/A   Clear
5:55 PM 57.2 °F 51.8 °F 82% 30.08 in 10.0 mi North - - N/A   Clear
6:15 PM 55.4 °F 51.8 °F 88% 30.07 in 9.0 mi North - - N/A   Partly Cloudy
6:35 PM 55.4 °F 50.0 °F 82% 30.07 in 9.0 mi North - - N/A   Scattered Clouds
6:55 PM 53.6 °F 50.0 °F 88% 30.07 in 8.0 mi North - - N/A   Mostly Cloudy
7:15 PM 53.6 °F 50.0 °F 88% 30.07 in 7.0 mi North - - N/A   Overcast
7:35 PM 51.8 °F 50.0 °F 94% 30.07 in 2.5 mi North - - N/A   Overcast
7:55 PM 51.8 °F 50.0 °F 94% 30.07 in 0.8 mi North - - N/A   Overcast
8:15 PM 50.0 °F 50.0 °F 100% 30.07 in 0.2 mi North - - N/A   Overcast
8:35 PM 50.0 °F 50.0 °F 100% 30.07 in 0.2 mi North - - N/A   Overcast
8:55 PM 50.0 °F 50.0 °F 100% 30.07 in 0.2 mi North - - N/A   Overcast
9:15 PM 50.0 °F 50.0 °F 100% 30.07 in 0.2 mi North - - N/A   Overcast
9:35 PM 50.0 °F 50.0 °F 100% 30.07 in 0.2 mi North - - N/A   Overcast
9:55 PM 50.0 °F 50.0 °F 100% 30.07 in 0.2 mi North - - N/A   Overcast
10:15 PM 50.0 °F 50.0 °F 100% 30.07 in 0.2 mi North - - N/A   Overcast
10:35 PM 50.0 °F 50.0 °F 100% 30.07 in 0.2 mi North - - N/A   Overcast
10:55 PM 50.0 °F 50.0 °F 100% 30.07 in 0.2 mi North - - N/A   Overcast
11:15 PM 50.0 °F 50.0 °F 100% 30.07 in 0.2 mi North - - N/A   Overcast
11:35 PM 50.0 °F 50.0 °F 100% 30.06 in 0.5 mi North - - N/A   Overcast
11:55 PM 50.0 °F 50.0 °F 100% 30.06 in 0.8 mi North - - N/A   Overcast